Location: Iglesias
(39.3170°N, 8.5330°E)
Time: 08:52:43
(UTC+01:00)

ISS - Visible Passes

Search period start: 22 January 2019 00:00
Search period end: 01 February 2019 00:00
Orbit: 404 x 410 km, 51.6° (Epoch: 23 January)

Date Brightness Start Highest point End Pass type
(mag) Time Alt. Az. Time Alt. Az. Time Alt. Az.
22 Jan -3.2 19:27:14 10° WSW 19:30:01 55° W 19:30:01 55° W visible
23 Jan -3.7 18:35:55 10° SW 18:39:11 63° SE 18:41:04 23° ENE visible
23 Jan -0.4 20:13:26 10° WNW 20:13:48 12° WNW 20:13:48 12° WNW visible
24 Jan -2.4 19:21:30 10° W 19:24:27 29° NNW 19:24:46 29° NNW visible
25 Jan -3.1 18:29:46 10° WSW 18:32:59 49° NNW 18:35:40 14° NE visible
26 Jan -1.6 19:16:11 10° WNW 19:18:29 17° NNW 19:19:13 16° N visible
27 Jan -2.0 18:24:07 10° W 18:26:53 24° NNW 18:29:40 10° NNE visible
28 Jan -1.2 19:11:11 10° NW 19:12:37 12° NNW 19:13:25 11° N visible
29 Jan -1.4 18:18:51 10° WNW 18:20:54 15° NNW 18:22:57 10° NNE visible
30 Jan -1.1 19:06:32 10° N 19:06:47 10° N 19:07:01 10° N visible
31 Jan -1.2 18:13:54 10° NNW 18:15:00 11° N 18:16:05 10° N visible
